When you browse on this site, cookies collect data to enhance your experience and personalize the content and advertising you see.
Visit our Privacy Policy to learn more. By continuing to use the site, you agree to this use of cookies and data.
  • In Österreich
  • Länderverzeichnis
  • Für 7 Tage
  • Wassertemperatur
  • Satellitenkarten
  • Wetterkarte
  • News
  • Widgets
  • user-avatar
    Anmelden

    Stündliche Wetter Pluzhenicy

    Heute, 19 November, Montag

    Zeit Temperatur Niederschläge Wind Luftdruck Luftfeuchtigkeit
    00:00 +1°C° 0 mm 3 m/S 765 mmHg 93%
    01:00 0°C° 0 mm 3 m/S 765 mmHg 93%
    02:00 +1°C° 0 mm 2 m/S 766 mmHg 94%
    03:00 0°C° 0 mm 3 m/S 766 mmHg 93%
    04:00 0°C° 0 mm 3 m/S 766 mmHg 93%
    05:00 0°C° 0 mm 3 m/S 767 mmHg 93%
    06:00 0°C° 0 mm 3 m/S 767 mmHg 93%
    07:00 -1°C° 0 mm 2 m/S 767 mmHg 93%
    08:00 -1°C° 0 mm 2 m/S 768 mmHg 93%
    09:00 -1°C° 0 mm 2 m/S 768 mmHg 92%
    10:00 +1°C° 0 mm 2 m/S 768 mmHg 90%
    11:00 +1°C° 0 mm 2 m/S 769 mmHg 89%
    12:00 +1°C° 0 mm 2 m/S 769 mmHg 88%
    13:00 +1°C° 0 mm 2 m/S 769 mmHg 87%
    14:00 -1°C° 0 mm 2 m/S 769 mmHg 87%
    15:00 -1°C° 0 mm 2 m/S 769 mmHg 87%
    16:00 -2°C° 0 mm 2 m/S 769 mmHg 88%
    17:00 -2°C° 0 mm 2 m/S 769 mmHg 88%
    18:00 -2°C° 0 mm 2 m/S 769 mmHg 88%
    19:00 -3°C° 0 mm 2 m/S 769 mmHg 88%
    20:00 -3°C° 0 mm 2 m/S 769 mmHg 88%
    21:00 -4°C° 0 mm 2 m/S 769 mmHg 89%
    22:00 -2°C° 0 mm 1 m/S 769 mmHg 90%
    23:00 -2°C° 0 mm 1 m/S 769 mmHg 91%

    Morgen, 20 November, Dienstag

    Zeit Temperatur Niederschläge Wind Luftdruck Luftfeuchtigkeit
    00:00 -3°C° 0 mm 1 m/S 769 mmHg 92%
    01:00 -3°C° 0 mm 1 m/S 769 mmHg 92%
    02:00 -3°C° 0 mm 1 m/S 769 mmHg 93%
    03:00 -4°C° 0 mm 1 m/S 768 mmHg 94%
    04:00 -4°C° 0 mm 1 m/S 768 mmHg 94%
    05:00 -4°C° 0 mm 1 m/S 768 mmHg 94%
    06:00 -4°C° 0 mm 1 m/S 768 mmHg 94%
    07:00 -4°C° 0 mm 1 m/S 767 mmHg 94%
    08:00 -5°C° 0 mm 0 m/S 767 mmHg 94%
    09:00 -4°C° 0 mm 0 m/S 767 mmHg 89%
    10:00 -3°C° 0 mm 0 m/S 767 mmHg 85%
    11:00 -2°C° 0 mm 0 m/S 766 mmHg 80%
    12:00 -2°C° 0 mm 0 m/S 766 mmHg 80%
    13:00 -1°C° 0 mm 1 m/S 766 mmHg 79%
    14:00 -1°C° 0 mm 1 m/S 766 mmHg 79%
    15:00 -1°C° 0 mm 1 m/S 765 mmHg 82%
    16:00 -2°C° 0 mm 1 m/S 765 mmHg 85%
    17:00 -3°C° 0 mm 1 m/S 765 mmHg 89%
    18:00 -3°C° 0 mm 1 m/S 765 mmHg 88%
    19:00 -3°C° 0 mm 1 m/S 764 mmHg 87%
    20:00 -2°C° 0 mm 1 m/S 764 mmHg 86%
    21:00 -2°C° 0 mm 1 m/S 764 mmHg 87%
    22:00 -4°C° 0 mm 2 m/S 764 mmHg 87%
    23:00 -4°C° 0 mm 2 m/S 764 mmHg 87%

    übermorgen, 21 November, Mittwoch

    Zeit Temperatur Niederschläge Wind Luftdruck Luftfeuchtigkeit
    00:00 -3°C° 0 mm 2 m/S 764 mmHg 89%
    01:00 -3°C° 0 mm 2 m/S 764 mmHg 90%
    02:00 -2°C° 0 mm 2 m/S 764 mmHg 92%
    03:00 -2°C° 0 mm 2 m/S 764 mmHg 93%
    04:00 -2°C° 0 mm 2 m/S 764 mmHg 93%
    05:00 -1°C° 0 mm 2 m/S 764 mmHg 93%
    06:00 -1°C° 0 mm 2 m/S 765 mmHg 92%
    07:00 -2°C° 0 mm 2 m/S 765 mmHg 91%
    08:00 -2°C° 0 mm 2 m/S 765 mmHg 90%
    09:00 -1°C° 0 mm 2 m/S 765 mmHg 88%
    10:00 -1°C° 0 mm 2 m/S 765 mmHg 87%
    11:00 -1°C° 0 mm 2 m/S 765 mmHg 85%
    12:00 -1°C° 0 mm 2 m/S 765 mmHg 86%
    13:00 -1°C° 0 mm 2 m/S 765 mmHg 86%
    14:00 +1°C° 0 mm 1 m/S 765 mmHg 87%
    15:00 0°C° 0 mm 1 m/S 765 mmHg 90%
    16:00 -1°C° 0 mm 1 m/S 765 mmHg 92%
    17:00 -1°C° 0 mm 1 m/S 765 mmHg 95%
    18:00 -1°C° 0 mm 1 m/S 765 mmHg 95%
    19:00 -4°C° 0 mm 2 m/S 765 mmHg 95%
    20:00 -4°C° 0 mm 2 m/S 765 mmHg 95%
    21:00 -4°C° 0 mm 2 m/S 765 mmHg 95%
    22:00 -4°C° 0 mm 2 m/S 765 mmHg 95%
    23:00 -4°C° 0 mm 2 m/S 765 mmHg 95%

    22 November, Donnerstag

    Zeit Temperatur Niederschläge Wind Luftdruck Luftfeuchtigkeit
    00:00 -4°C° 0 mm 2 m/S 764 mmHg 94%
    01:00 -4°C° 0 mm 2 m/S 764 mmHg 94%
    02:00 -4°C° 0 mm 2 m/S 764 mmHg 93%
    03:00 -4°C° 0 mm 2 m/S 763 mmHg 93%
    04:00 -5°C° 0 mm 3 m/S 763 mmHg 94%
    05:00 -5°C° 0 mm 3 m/S 763 mmHg 94%
    06:00 -5°C° 0 mm 3 m/S 762 mmHg 93%
    07:00 -4°C° 0 mm 3 m/S 762 mmHg 93%
    08:00 -4°C° 0 mm 3 m/S 762 mmHg 92%
    09:00 -4°C° 0 mm 3 m/S 761 mmHg 89%
    10:00 -3°C° 0 mm 4 m/S 761 mmHg 85%
    11:00 -3°C° 0 mm 4 m/S 761 mmHg 81%
    12:00 -2°C° 0 mm 4 m/S 761 mmHg 81%
    13:00 -2°C° 0 mm 4 m/S 761 mmHg 80%
    14:00 -2°C° 0 mm 4 m/S 760 mmHg 80%
    15:00 -2°C° 0 mm 4 m/S 760 mmHg 83%
    16:00 -2°C° 0 mm 4 m/S 761 mmHg 85%
    17:00 -1°C° 0 mm 3 m/S 761 mmHg 88%
    18:00 -1°C° 0 mm 3 m/S 761 mmHg 89%
    19:00 -1°C° 0 mm 3 m/S 761 mmHg 91%
    20:00 -1°C° 0 mm 3 m/S 762 mmHg 92%
    21:00 -1°C° 0 mm 3 m/S 762 mmHg 93%
    22:00 -1°C° 0 mm 2 m/S 762 mmHg 94%
    23:00 -1°C° 0 mm 2 m/S 763 mmHg 95%

    23 November, Freitag

    Zeit Temperatur Niederschläge Wind Luftdruck Luftfeuchtigkeit
    00:00 -1°C° 0 mm 2 m/S 763 mmHg 95%
    01:00 -2°C° 0 mm 2 m/S 763 mmHg 96%
    02:00 0°C° 0 mm 1 m/S 764 mmHg 97%
    03:00 0°C° 0 mm 1 m/S 764 mmHg 97%
    04:00 0°C° 0 mm 1 m/S 764 mmHg 97%
    05:00 0°C° 0 mm 1 m/S 765 mmHg 97%
    06:00 0°C° 0 mm 1 m/S 765 mmHg 96%
    07:00 0°C° 0 mm 1 m/S 765 mmHg 96%
    08:00 -1°C° 0 mm 2 m/S 765 mmHg 95%
    09:00 -1°C° 0 mm 2 m/S 765 mmHg 94%
    10:00 -1°C° 0 mm 2 m/S 765 mmHg 92%
    11:00 +1°C° 0 mm 2 m/S 765 mmHg 91%
    12:00 +1°C° 0 mm 2 m/S 765 mmHg 90%
    13:00 0°C° 0 mm 3 m/S 765 mmHg 89%
    14:00 0°C° 0 mm 3 m/S 765 mmHg 89%
    15:00 0°C° 0 mm 3 m/S 764 mmHg 89%
    16:00 -1°C° 0 mm 3 m/S 764 mmHg 89%
    17:00 -2°C° 0 mm 4 m/S 764 mmHg 89%
    18:00 -2°C° 0 mm 4 m/S 764 mmHg 88%
    19:00 -2°C° 0 mm 4 m/S 763 mmHg 87%
    20:00 -2°C° 0 mm 4 m/S 763 mmHg 87%
    21:00 -2°C° 0 mm 4 m/S 763 mmHg 86%
    22:00 -2°C° 0 mm 4 m/S 762 mmHg 86%
    23:00 -2°C° 0 mm 4 m/S 762 mmHg 85%

    24 November, Samstag

    Zeit Temperatur Niederschläge Wind Luftdruck Luftfeuchtigkeit
    00:00 -2°C° 0 mm 4 m/S 762 mmHg 86%
    01:00 -3°C° 0 mm 4 m/S 761 mmHg 86%
    02:00 -3°C° 0 mm 4 m/S 761 mmHg 86%
    03:00 -3°C° 0 mm 4 m/S 761 mmHg 86%
    04:00 -3°C° 0 mm 4 m/S 760 mmHg 86%
    05:00 -4°C° 0 mm 4 m/S 760 mmHg 86%
    06:00 -4°C° 0 mm 4 m/S 759 mmHg 86%
    07:00 -4°C° 0 mm 4 m/S 759 mmHg 86%
    08:00 -4°C° 0 mm 3 m/S 759 mmHg 85%
    09:00 -2°C° 0 mm 3 m/S 759 mmHg 84%
    10:00 -2°C° 0 mm 3 m/S 759 mmHg 84%
    11:00 -1°C° 0 mm 3 m/S 758 mmHg 83%
    12:00 -1°C° 0 mm 3 m/S 758 mmHg 83%
    13:00 -1°C° 0 mm 3 m/S 758 mmHg 84%
    14:00 -1°C° 0 mm 3 m/S 757 mmHg 84%
    15:00 -1°C° 0 mm 3 m/S 757 mmHg 85%
    16:00 -1°C° 0 mm 3 m/S 757 mmHg 86%
    17:00 -1°C° 0 mm 3 m/S 757 mmHg 87%
    18:00 -1°C° 0 mm 3 m/S 756 mmHg 87%
    19:00 -2°C° 0 mm 3 m/S 756 mmHg 87%
    20:00 -2°C° 0 mm 3 m/S 756 mmHg 87%
    21:00 -2°C° 0 mm 3 m/S 756 mmHg 87%
    22:00 -2°C° 0 mm 3 m/S 756 mmHg 88%
    23:00 -2°C° 0 mm 3 m/S 756 mmHg 88%
    Mehr zeigen